User: anonymous   Login
Location: Oronoko Observatory
(41.9167°N, 86.3833°W)
Time: 16:41:09
(UTC-04:00)
Language:

PAYLOAD A - Orbit

View from above orbital plane
View from above orbital plane
View from above satellite
View from above satellite

Ground track
Ground track

The orbit data is extracted from the following two-line orbital elements,

1 27840U 03031A   16121.51788996  .00000010  00000-0  16650-4 0  9995
2 27840  98.1974 131.1025 0097001 283.3594  75.6794 14.38852628673961
Epoch (UTC): 30 April 2016 12:25:45
Eccentricity: 0.0097001
inclination: 98.1974°
perigee height: 693 km
apogee height: 831 km
right ascension of ascending node: 131.1025°
argument of perigee: 283.3594°
revolutions per day: 14.38852628
mean anomaly at epoch: 75.6794°
orbit number at epoch: 67396

The dashed part of the orbit path shows where the satellite is in the earth's shadow,  

DLR